(°C)
22°
23°
24°
25°
25°
26°
26°
(°C)
20°
21°
22°
23°
24°
24°
23°
Ю
Ю
Ю
ЮЮЗ
ЮЮЗ
ЮЗ
ЮЗ
(km/h)
12-22
13-23
13-23
12-23
12-23
12-23
12-23
(mm)
0
0
0
0
0
0
0
(%)
0
0
0
0
0
0
0

Издигане на слънцето

/ 56.1°
sun-icon
UV 7
05:18
20:59
Намаляваща полу-луна (226°)
00:28
07:40

METAR за Хоф (EDQM)

Час Условия Температура/
Точка на оросяване
Вятър Видимост Времето Облаци Налягане Промяна Сурови
VFR 22°C / 8°C 160º 8kt >10km - Clouds and Visibility OK 1023 - EDQM 190920Z 16008KT CAVOK 22/08 Q1023
VFR 21°C / 8°C 160º variable 110º to 210º 9kt >10km - Clouds and Visibility OK 1023 - EDQM 190850Z 16009KT 110V210 CAVOK 21/08 Q1023
VFR 20°C / 8°C 150º variable 130º to 200º 8kt >10km - Clouds and Visibility OK 1024 - EDQM 190820Z 15008KT 130V200 CAVOK 20/08 Q1024
VFR 19°C / 8°C 150º 9kt >10km - Clouds and Visibility OK 1024 - EDQM 190750Z 15009KT CAVOK 19/08 Q1024
VFR 18°C / 8°C 150º 6kt >10km - Clouds and Visibility OK 1024 - EDQM 190720Z 15006KT CAVOK 18/08 Q1024
VFR 17°C / 8°C 150º variable 090º to 180º 5kt >10km - Clouds and Visibility OK 1024 - EDQM 190650Z 15005KT 090V180 CAVOK 17/08 Q1024
VFR 16°C / 8°C 160º variable 120º to 210º 3kt >10km - Clouds and Visibility OK 1024 - EDQM 190620Z 16003KT 120V210 CAVOK 16/08 Q1024
VFR 14°C / 8°C 160º 5kt >10km - Clouds and Visibility OK 1024 - EDQM 190550Z 16005KT CAVOK 14/08 Q1024
VFR 14°C / 8°C 160º 5kt >10km - Clouds and Visibility OK 1024 - EDQM 190520Z 16005KT CAVOK 14/08 Q1024
VFR 12°C / 8°C 190º 4kt >10km - Clouds and Visibility OK 1024 - EDQM 190450Z 19004KT CAVOK 12/08 Q1024
VFR 11°C / 7°C 180º 4kt >10km - Clear 1024 - EDQM 190420Z AUTO 18004KT 9999 // NCD 11/07 Q1024
VFR 10°C / 7°C 170º 4kt >10km - Clear 1024 - EDQM 190350Z AUTO 17004KT 9999 // NCD 10/07 Q1024
VFR 10°C / 7°C 170º 3kt >10km - Clear 1024 - EDQM 190320Z AUTO 17003KT 9999 // NCD 10/07 Q1024
VFR 10°C / 7°C 170º 4kt >10km - Clear 1024 - EDQM 190250Z AUTO 17004KT 9999 // NCD 10/07 Q1024
VFR 11°C / 7°C 180º 4kt >10km - Clear 1024 - EDQM 190220Z AUTO 18004KT 9999 // NCD 11/07 Q1024
VFR 11°C / 7°C 170º 4kt >10km - Clear 1024 - EDQM 190150Z AUTO 17004KT 9999 // NCD 11/07 Q1024
VFR 11°C / 7°C 160º 3kt >10km - Clear 1024 - EDQM 190120Z AUTO 16003KT 9999 // NCD 11/07 Q1024
VFR 13°C / 7°C 140º 5kt >10km - Clear 1024 - EDQM 190050Z AUTO 14005KT 9999 // NCD 13/07 Q1024
VFR 12°C / 7°C 140º 4kt >10km - Clear 1024 - EDQM 190020Z AUTO 14004KT 9999 // NCD 12/07 Q1024
VFR 13°C / 8°C 160º 4kt >10km - Clear 1024 - EDQM 182350Z AUTO 16004KT 9999 // NCD 13/08 Q1024
VFR 14°C / 8°C 140º 5kt >10km - Clear 1025 - EDQM 182320Z AUTO 14005KT 9999 // NCD 14/08 Q1025
VFR 14°C / 8°C 150º 5kt >10km - Clear 1025 - EDQM 182250Z AUTO 15005KT 9999 // NCD 14/08 Q1025
VFR 15°C / 8°C 150º variable 120º to 180º 5kt >10km - Clear 1025 - EDQM 182220Z AUTO 15005KT 120V180 9999 // NCD 15/08 Q1025
VFR 15°C / 8°C 140º 4kt >10km - Clear 1025 - EDQM 182150Z AUTO 14004KT 9999 // NCD 15/08 Q1025

VFR

22°C / 8°C

[Още]
Вятър 160º 8kt
Видимост >10km
Времето -
Облаци Clouds and Visibility OK
Налягане 1023
Промяна -
Сурови EDQM 190920Z 16008KT CAVOK 22/08 Q1023

VFR

21°C / 8°C

[Още]
Вятър 160º variable 110º to 210º 9kt
Видимост >10km
Времето -
Облаци Clouds and Visibility OK
Налягане 1023
Промяна -
Сурови EDQM 190850Z 16009KT 110V210 CAVOK 21/08 Q1023

VFR

20°C / 8°C

[Още]
Вятър 150º variable 130º to 200º 8kt
Видимост >10km
Времето -
Облаци Clouds and Visibility OK
Налягане 1024
Промяна -
Сурови EDQM 190820Z 15008KT 130V200 CAVOK 20/08 Q1024

VFR

19°C / 8°C

[Още]
Вятър 150º 9kt
Видимост >10km
Времето -
Облаци Clouds and Visibility OK
Налягане 1024
Промяна -
Сурови EDQM 190750Z 15009KT CAVOK 19/08 Q1024

VFR

18°C / 8°C

[Още]
Вятър 150º 6kt
Видимост >10km
Времето -
Облаци Clouds and Visibility OK
Налягане 1024
Промяна -
Сурови EDQM 190720Z 15006KT CAVOK 18/08 Q1024

VFR

17°C / 8°C

[Още]
Вятър 150º variable 090º to 180º 5kt
Видимост >10km
Времето -
Облаци Clouds and Visibility OK
Налягане 1024
Промяна -
Сурови EDQM 190650Z 15005KT 090V180 CAVOK 17/08 Q1024

VFR

16°C / 8°C

[Още]
Вятър 160º variable 120º to 210º 3kt
Видимост >10km
Времето -
Облаци Clouds and Visibility OK
Налягане 1024
Промяна -
Сурови EDQM 190620Z 16003KT 120V210 CAVOK 16/08 Q1024

VFR

14°C / 8°C

[Още]
Вятър 160º 5kt
Видимост >10km
Времето -
Облаци Clouds and Visibility OK
Налягане 1024
Промяна -
Сурови EDQM 190550Z 16005KT CAVOK 14/08 Q1024

VFR

14°C / 8°C

[Още]
Вятър 160º 5kt
Видимост >10km
Времето -
Облаци Clouds and Visibility OK
Налягане 1024
Промяна -
Сурови EDQM 190520Z 16005KT CAVOK 14/08 Q1024

VFR

12°C / 8°C

[Още]
Вятър 190º 4kt
Видимост >10km
Времето -
Облаци Clouds and Visibility OK
Налягане 1024
Промяна -
Сурови EDQM 190450Z 19004KT CAVOK 12/08 Q1024

VFR

11°C / 7°C

[Още]
Вятър 180º 4kt
Видимост >10km
Времето -
Облаци Clear
Налягане 1024
Промяна -
Сурови EDQM 190420Z AUTO 18004KT 9999 // NCD 11/07 Q1024

VFR

10°C / 7°C

[Още]
Вятър 170º 4kt
Видимост >10km
Времето -
Облаци Clear
Налягане 1024
Промяна -
Сурови EDQM 190350Z AUTO 17004KT 9999 // NCD 10/07 Q1024

VFR

10°C / 7°C

[Още]
Вятър 170º 3kt
Видимост >10km
Времето -
Облаци Clear
Налягане 1024
Промяна -
Сурови EDQM 190320Z AUTO 17003KT 9999 // NCD 10/07 Q1024

VFR

10°C / 7°C

[Още]
Вятър 170º 4kt
Видимост >10km
Времето -
Облаци Clear
Налягане 1024
Промяна -
Сурови EDQM 190250Z AUTO 17004KT 9999 // NCD 10/07 Q1024

VFR

11°C / 7°C

[Още]
Вятър 180º 4kt
Видимост >10km
Времето -
Облаци Clear
Налягане 1024
Промяна -
Сурови EDQM 190220Z AUTO 18004KT 9999 // NCD 11/07 Q1024

VFR

11°C / 7°C

[Още]
Вятър 170º 4kt
Видимост >10km
Времето -
Облаци Clear
Налягане 1024
Промяна -
Сурови EDQM 190150Z AUTO 17004KT 9999 // NCD 11/07 Q1024

VFR

11°C / 7°C

[Още]
Вятър 160º 3kt
Видимост >10km
Времето -
Облаци Clear
Налягане 1024
Промяна -
Сурови EDQM 190120Z AUTO 16003KT 9999 // NCD 11/07 Q1024

VFR

13°C / 7°C

[Още]
Вятър 140º 5kt
Видимост >10km
Времето -
Облаци Clear
Налягане 1024
Промяна -
Сурови EDQM 190050Z AUTO 14005KT 9999 // NCD 13/07 Q1024

VFR

12°C / 7°C

[Още]
Вятър 140º 4kt
Видимост >10km
Времето -
Облаци Clear
Налягане 1024
Промяна -
Сурови EDQM 190020Z AUTO 14004KT 9999 // NCD 12/07 Q1024

VFR

13°C / 8°C

[Още]
Вятър 160º 4kt
Видимост >10km
Времето -
Облаци Clear
Налягане 1024
Промяна -
Сурови EDQM 182350Z AUTO 16004KT 9999 // NCD 13/08 Q1024

VFR

14°C / 8°C

[Още]
Вятър 140º 5kt
Видимост >10km
Времето -
Облаци Clear
Налягане 1025
Промяна -
Сурови EDQM 182320Z AUTO 14005KT 9999 // NCD 14/08 Q1025

VFR

14°C / 8°C

[Още]
Вятър 150º 5kt
Видимост >10km
Времето -
Облаци Clear
Налягане 1025
Промяна -
Сурови EDQM 182250Z AUTO 15005KT 9999 // NCD 14/08 Q1025

VFR

15°C / 8°C

[Още]
Вятър 150º variable 120º to 180º 5kt
Видимост >10km
Времето -
Облаци Clear
Налягане 1025
Промяна -
Сурови EDQM 182220Z AUTO 15005KT 120V180 9999 // NCD 15/08 Q1025

VFR

15°C / 8°C

[Още]
Вятър 140º 4kt
Видимост >10km
Времето -
Облаци Clear
Налягане 1025
Промяна -
Сурови EDQM 182150Z AUTO 14004KT 9999 // NCD 15/08 Q1025

TAF за Хоф (EDQM)

From till


From till Wind 160º 6kt. Visibility 10km or more. Nil Significant Cloud.
Becoming from till Wind 220º 7kt. Visibility 10km or more. Nil Significant Cloud.

Сурови: TAF EDQM 190800Z 1909/1918 16006KT CAVOK BECMG 1911/1913 22007KT

rainNOW: Дъжд в момента за Хоф и околности (радиус 25 км)

0.0 mm
0.0 mm
0.0 mm
0.0 mm
0.0 mm
0.0 mm
0.0 mm
0.0 mm
0.0 mm
0.0 mm
0.0 mm
0.0 mm

Радар за Хоф

Ситен дъжд
Лек
Умерен
Тежък
Много тежък
Аве

Маркерът за локация обозначава Хоф. Анимацията показва Радара за валежи за последния час, както и прогноза за 2h. Дъждът или лекият сняг може да са невидими за радара. Интензивността на валежите е обозначена с цветни кодове, вариращи от светлосиньо до оранжево.
Copyright 2022 Deutscher Wetterdienst / meteoblue.

Актуални сателитни и дъждовни снимки за Хоф, Германия

Маркерът за локация е поставен върху Хоф. [Още]

Сателитното изображение в реално време съчетава видимата светлина през деня с инфрачервеното лъчение през нощта. През нощта изображението не е тъмно, тъй като инфрачервеното лъчение може да открива температурни разлики. За съжаление ниските облаци и мъглата са трудни за разграничаване от температурите на земята и затова могат да бъдат почти невидими през нощта. Сателитните изображения на Meteosat за Европа се актуализират в реално време на всеки 5 минути. Изображенията GOES-16/GOES-17 (Северна и Южна Америка) и Химавари (Азия) се актуализират на всеки 10 минути.

Валежите се изчисляват на база информация от радари и сателити. Нощните прогнози за валежи от сателити са с по-ниска прецизност от дневните прогнози. Оранжевите кръстове маркират локациите, на които са засечени светкавици (над Европа).

Всички права запазени 2022 EUMETSAT / meteoblue. Данни за светкавици, предоставени от nowcast.

Върнете се в началото